314  
ASUS42 KTBW 211110  
RWRFL  
FLORIDA REGIONAL WEATHER ROUNDUP  
NATIONAL WEATHER SERVICE TAMPA BAY RUSKIN FL  
600 AM EST SUN DEC 21 2014  
 
NOTE: "FAIR" INDICATES FEW OR NO CLOUDS BELOW 12,000 FEET WITH NO  
SIGNIFICANT WEATHER AND/OR S TO VISIBILITY
.  
 
 
FLZ001>010-012>015-112-114-115-211200-  
PANHANDLE FLORIDA  
 
CITY SKY/WX TMP DP RH WIND PRES REMARKS
 
PENSACOLA CLOUDY 50 50 100 N6 30.09S  
CRESTVIEW CLOUDY 53 50 89 NE3 30.11S  
DUKE FIELD CLOUDY 53 50 90 NE5 30.09S  
VALPARAISO CLOUDY 54 51 89 NE9 30.08F  
MARY ESTHER CLOUDY 53 48 82 NE7 30.07F  
PANAMA CITY CLOUDY 54 51 90 N7 30.07F  
APALACHICOLA CLOUDY 58 54 86 NE8 30.05R  
 
STATION/POSITION SKY/WX TEMP WIND PRES WAVE SWELL
 
AIR SEA DIR/SP/G HT/PER HT/PER  
(F) (DEG/KT/KT) (MB) (FT/S) (FT/S)  
30.1N 87.6W 57 70 40/ 12/ 16 1018.0F 3/ 6 2/ 6  
29.2N 88.2W 63 74 40/ 17/ 19 1016.8F 5/ 6  
28.7N 86.0W 69 75 70/ 12/ 14 1015.9F 4/ 6 3/ 6  
PANAMA CITY BEAC 54 60 30/ 8/ 11 1017.9R  
CAPE SAN BLAS NOT AVBL  
TOWER C 59 70/ 18/ 20 1017.1R  
28.5N 84.5W 71 71 130/ 16/ 17 1015.5R 3/ 4 2/ 7  
 

 
FLZ011-016>038-118-127-128-134-139-239-211200-  
NORTH FLORIDA  
 
CITY SKY/WX TMP DP RH WIND PRES REMARKS
 
MARIANNA LGT RAIN 53 53 100 NE10 30.10S  
TALLAHASSEE CLOUDY 56 52 86 NE7 30.07S  
PERRY CLOUDY 56 55 99 NE3 30.08F FOG  
CROSS CITY N/A 58 57 97 NE6 30.07R  
LAKE CITY CLOUDY 54 54 100 NE6 30.09R FOG  
GAINESVILLE CLOUDY 58 58 100 NE8 30.08S FOG  
MAYPORT NAS CLOUDY 60 58 92 NE14 30.10S  
JACKSONVILLE CLOUDY 57 57 100 NE10 30.10S  
JAX NAS CLOUDY 61 57 87 N9 30.10F  
JAX CRAIG CLOUDY 59 57 93 NE8 30.10S FOG  
JAX CECIL CLOUDY 57 57 100 NE7 30.10S FOG  
FERNANDINA BEA CLOUDY 63 59 88 N12G17 30.10R  
ST AUGUSTINE CLOUDY 61 60 97 N8 30.09S  
 
STATION/POSITION SKY/WX TEMP WIND PRES WAVE SWELL
 
AIR SEA DIR/SP/G HT/PER HT/PER  
(F) (DEG/KT/KT) (MB) (FT/S) (FT/S)  
SHELL POINT 56 50/ 4/ 11 N/A  
KEATON BEACH 57 50/ 9/ 13 1017.9F  
CEDAR KEY 58 80/ 9/ 10 1018.0F  
FERNANDINA 57 59 30/ 9/ 13 1018.8R  
30.7N 81.3W 62 N/A 5/ 6  
MAYPORT 60 62 30/ 13/ 16 N/A  
31.4N 80.9W 56 59 30/ 17/ 21 1020.1R 5/ 6 2/11  
ST AUGUSTINE 62 360/ 12/ 12 1019.1S  
 

 
FLZ040-043>046-052-053-057-058-063-144-211200-  
INTERIOR CENTRAL FLORIDA  
 
CITY SKY/WX TMP DP RH WIND PRES REMARKS
 
OCALA CLOUDY 59 57 94 E5 30.07S  
THE VILLAGES FOG 61 61 100 NE5 29.97S VSB 1  
LEESBURG CLOUDY 61 60 97 E3 30.08S FOG  
SANFORD CLOUDY 62 60 93 N3 30.08R  
ORLANDO EXEC CLOUDY 63 61 93 E5 30.07R  
ORLANDO INTL CLOUDY 62 61 96 E3 30.08R  
WINTER HAVEN MOCLDY 63 59 87 CALM 30.08R  
LAKELAND MOCLDY 61 57 88 VRB3 30.06S  
BARTOW MOCLDY 55 55 100 CALM 30.08S  
OKEECHOBEE MOCLDY 55 55 100 CALM 30.08R  
 

 
FLZ041-047-054-059-064-141-147-211200-  
EAST CENTRAL FLORIDA  
 
CITY SKY/WX TMP DP RH WIND PRES REMARKS
 
DAYTONA BEACH CLOUDY 63 61 93 N3 30.08S  
DELAND CLOUDY N/A N/A N/A NE3 30.08S VSB 1/4  
CAPE CANAVERAL MOCLDY 59 58 96 N1 30.07R  
PATRICK AFB MOCLDY 64 62 94 CALM 30.07  
MELBOURNE MOCLDY 62 60 93 CALM 30.07R  
VERO BEACH PTCLDY 58 57 97 SW3 30.08R  
FT PIERCE PTCLDY 57 55 93 CALM 30.07S  
 
STATION/POSITION SKY/WX TEMP WIND PRES WAVE SWELL
 
AIR SEA DIR/SP/G HT/PER HT/PER  
(F) (DEG/KT/KT) (MB) (FT/S) (FT/S)  
28.5N 80.2W 71 76 250/ 8/ 8 1018.2S  
28.9N 78.5W 75 77 200/ 10/ 12 1018.6R 2/11 2/11  
TRIDENT PIER 62 65 CALM / 1 1017.8R  
28.4N 80.5W 66 N/A 2/10  
27.6N 80.2W 76 N/A 1/11  
 

 
FLZ050-056-061-142-242-148-248-149-249-151-251-155-255-  
160-260-211200-  
WEST CENTRAL FLORIDA  
 
CITY SKY/WX TMP DP RH WIND PRES REMARKS
 
CRYSTAL RIVER CLOUDY 61 59 94 E6 30.05S FOG  
INVERNESS CLOUDY 61 61 100 CALM 30.07R FOG  
BROOKSVILLE CLOUDY 61 60 97 E5 30.06S FOG  
ZEPHYRHILLS FAIR 57 55 94 CALM 30.07S  
CLEARWATER MOCLDY 63 60 90 SE6 30.05R  
TAMPA INTL MOCLDY 64 57 78 E3 30.06S  
TAMPA EXEC MOCLDY 61 57 88 CALM 30.07R  
PLANT CITY MOCLDY 61 N/A N/A CALM 30.09R  
MACDILL AFB CLOUDY 61 61 99 E5 30.06R  
PETER O KNIGHT MOCLDY 64 61 88 E3 30.06S  
ST PETERSBURG CLOUDY 65 60 84 SE3 30.05R  
SARASOTA MOCLDY 61 59 93 E3 30.05R  
VENICE FAIR 63 63 100 SE6 30.07R  
 
STATION/POSITION SKY/WX TEMP WIND PRES WAVE SWELL
 
AIR SEA DIR/SP/G HT/PER HT/PER  
(F) (DEG/KT/KT) (MB) (FT/S) (FT/S)  
CEDAR KEY 58 80/ 9/ 10 1018.0F  
28.5N 84.5W 71 71 130/ 16/ 17 1015.5R 3/ 4 2/ 7  
27.3N 84.3W 75 N/A 3/ 4  
CLEARWATER BEACH 65 64 110/ 7/ 9 1017.0F  
MIDDLE TAMPA BAY 64 130/ 5/ 6 1017.9R  
VENICE 64 65 110/ 6/ 8 1017.6R  
 

 
FLZ066-069-070-075>078-162-262-165-265-211200-  
SOUTHWEST FLORIDA AND KEYS  
 
CITY SKY/WX TMP DP RH WIND PRES REMARKS
 
PUNTA GORDA CLEAR 59 58 96 SE5 30.07S  
FT MYERS MOCLDY 63 61 93 SE6 30.05S  
SOUTHWEST INTL PTCLDY 59 58 96 CALM 30.06S  
NAPLES PTCLDY 62 61 96 E3 30.05S  
MARCO ISLAND CLOUDY 63 59 88 NE3 30.06R  
MARATHON PTCLDY 73 69 87 SE6 30.05R  
KEY WEST NAS MOCLDY 73 68 84 E5 30.05R  
KEY WEST INTL MOCLDY 75 68 78 E7 30.05R  
 
STATION/POSITION SKY/WX TEMP WIND PRES WAVE SWELL
 
AIR SEA DIR/SP/G HT/PER HT/PER  
(F) (DEG/KT/KT) (MB) (FT/S) (FT/S)  
VENICE 64 65 110/ 6/ 8 1017.6R  
NAPLES 65 73 100/ 5/ 6 1018.2F  
26.0N 85.6W 75 76 150/ 8/ 8 1015.8R 3/ 7 3/ 7  
DRY TORTUGAS 73 90/ 10/ 11 1016.5F  
NW FL BAY 70 80/ 6/ 6 1017.3F  
SAND KEY 76 120/ 11/ 13 1017.2R  
SOMBRERO KEY 76 140/ 13/ 15 1018.1R  
LONG KEY 72 71 110/ 5/ 6 1017.8F  
MOLASSES REEF 74 76 140/ 12/ 14 1017.7R  
 

 
FLZ067-068-071>074-168-172>174-211200-  
SOUTHEAST FLORIDA  
 
CITY SKY/WX TMP DP RH WIND PRES REMARKS
 
W PALM BEACH PTCLDY 61 60 97 CALM 30.06R  
FT LAUDER-EXEC PTCLDY 63 61 93 CALM 30.07R  
FT LAUDERDALE PTCLDY 66 64 93 CALM 30.06R  
POMPANO BEACH PTCLDY 66 61 84 CALM 30.07R  
PEMBROKE PINES PTCLDY 63 61 93 CALM 30.08R  
OPA LOCKA PTCLDY 61 61 100 CALM 30.07R  
MIAMI MOCLDY 66 63 90 CALM 30.07R  
WEST KENDALL FOG N/A N/A N/A CALM 30.07R VSB 3/4  
HOMESTEAD CLEAR 61 60 95 N2 30.06R  
 
STATION/POSITION SKY/WX TEMP WIND PRES WAVE SWELL
 
AIR SEA DIR/SP/G HT/PER HT/PER  
(F) (DEG/KT/KT) (MB) (FT/S) (FT/S)  
PORT EVERGLADES 74 150/ 5/ 7 1017.7  
VIRGINIA KEY 74 72 150/ 5/ 6 1018.4R  
LAKE WORTH 70 76 280/ 4/ 5 1017.7R  
SETTLEMENT POINT 72 100/ 9/ 10 1019.0R  
 

 
 
CLICK HERE TO GO TO PREVIOUS BULLETINS.

The Nexlab FL Page Main Text Page